sat.trackr.live / text

‹ back to catalog

SENTINEL-5P

NORAD 42969 · 2017-064A

PAYLOAD ACTIVE UNKNOWN

§ Identity

Operator
Country
ESA
Launch date
2017-10-13
Launch site
PLMSC
Launch vehicle
Mass (kg)
RCS (m²)

Purposes: earth_obs

External: N2YO · Heavens-Above · Gunter

§ Orbital elements

Epoch: 2026-05-25T01:58:42.720096Z

Period
101.44 min
Inclination
98.7918°
Eccentricity
0.0001077
Mean motion
14.19514407 rev/d
Perigee alt
826.2 km
Apogee alt
827.8 km
Semi-major
7,205.1 km
B*
4.1149e-5
RAAN
87.3794°
Arg perigee
77.5286°
Mean anomaly
282.6011°
Rev number
44,628

§ Raw data

SENTINEL-5P1 42969U 17064A   26145.08243889  .00000042  00000+0  41149-4 0  99962 42969  98.7918  87.3794 0001077  77.5286 282.6011 14.19514407446282

JSON: /api/v1/satellites/42969 · /tle

For live sub-satellite position, see the globe view (requires WebGL).

§ Visibility from observer

Set your observer location to see the next 7 days of passes ≥ 10°. The values pass through the URL so the page stays shareable.

No JS? Fill the form by hand. The geolocation button needs JavaScript.